| time (UTC) | temp F | wind direction | speed MPH | gust MPH | rain 1hr in | rain 24hr in | rain mn in | humidity % | barometer mb |
| 20260904073533 | 67 | 273 | 3.0 | 15.0 | 0.00 | 0.00 | 0.00 | 100 | 1012.4 |
| 20260904073050 | 67 | 234 | 3.0 | 15.0 | 0.00 | 0.00 | 0.00 | 100 | 1012.4 |
| 20260904072531 | 66 | 334 | 3.0 | 12.0 | 0.00 | 0.00 | 0.00 | 100 | 1012.4 |
| 20260904072034 | 66 | 203 | 5.0 | 12.0 | 0.00 | 0.00 | 0.00 | 100 | 1012.4 |
| 20260904071554 | 66 | 225 | 4.0 | 17.0 | 0.00 | 0.00 | 0.00 | 100 | 1012.5 |
| 20260904071034 | 66 | 116 | 3.0 | 17.0 | 0.00 | 0.00 | 0.00 | 100 | 1012.6 |
| 20260904070535 | 66 | 244 | 4.0 | 17.0 | 0.00 | 0.00 | 0.00 | 100 | 1012.5 |
| 20260904070052 | 66 | 193 | 3.0 | 16.0 | 0.00 | 0.00 | 0.00 | 100 | 1012.5 |
| 20260904065532 | 66 | 207 | 5.0 | 16.0 | 0.00 | 0.00 | 0.00 | 100 | 1012.5 |
| 20260904065034 | 66 | 182 | 4.0 | 13.0 | 0.00 | 0.00 | 0.00 | 100 | 1012.7 |
| 20260904064548 | 66 | 161 | 3.0 | 13.0 | 0.00 | 0.00 | 0.00 | 100 | 1012.7 |
| 20260904064034 | 66 | 175 | 3.0 | 14.0 | 0.00 | 0.00 | 0.00 | 100 | 1012.7 |
| 20260904063532 | 66 | 199 | 4.0 | 19.0 | 0.00 | 0.00 | 0.00 | 100 | 1012.8 |
| 20260904063105 | 66 | 176 | 4.0 | 19.0 | 0.00 | 0.00 | 0.00 | 100 | 1012.7 |
| 20260904062532 | 66 | 180 | 4.0 | 13.0 | 0.00 | 0.00 | 0.00 | 100 | 1012.6 |
| 20260904062032 | 66 | 257 | 3.0 | 13.0 | 0.00 | 0.00 | 0.00 | 100 | 1012.6 |
| 20260904061553 | 66 | 213 | 3.0 | 14.0 | 0.00 | 0.00 | 0.00 | 100 | 1012.7 |
| 20260904061035 | 66 | 223 | 4.0 | 14.0 | 0.00 | 0.00 | 0.00 | 100 | 1012.7 |
| 20260904060532 | 66 | 191 | 3.0 | 12.0 | 0.00 | 0.00 | 0.00 | 100 | 1012.8 |
| 20260904060104 | 66 | 241 | 3.0 | 12.0 | 0.00 | 0.00 | 0.00 | 100 | 1012.7 |
| 20260904055533 | 66 | 253 | 4.0 | 12.0 | 0.00 | 0.00 | 0.00 | 100 | 1012.8 |
| 20260904055033 | 66 | 261 | 4.0 | 13.0 | 0.00 | 0.00 | 0.00 | 100 | 1012.5 |
| 20260904054610 | 66 | 240 | 5.0 | 13.0 | 0.00 | 0.00 | 0.00 | 100 | 1012.8 |
| 20260904054033 | 66 | 206 | 4.0 | 12.0 | 0.00 | 0.00 | 0.00 | 100 | 1012.8 |
| 20260904053533 | 66 | 236 | 4.0 | 13.0 | 0.00 | 0.00 | 0.00 | 100 | 1012.7 |
| 20260904053054 | 66 | 254 | 2.0 | 14.0 | 0.00 | 0.00 | 0.00 | 100 | 1012.7 |
| 20260904052534 | 66 | 256 | 5.0 | 19.0 | 0.00 | 0.00 | 0.00 | 100 | 1012.7 |
| 20260904052035 | 66 | 261 | 5.0 | 19.0 | 0.00 | 0.00 | 0.00 | 100 | 1012.8 |
| 20260904051555 | 66 | 248 | 2.0 | 15.0 | 0.00 | 0.00 | 0.00 | 100 | 1012.7 |
| 20260904051031 | 66 | 273 | 3.0 | 15.0 | 0.00 | 0.00 | 0.00 | 100 | 1012.7 |
| 20260904050531 | 66 | 229 | 3.0 | 12.0 | 0.00 | 0.00 | 0.00 | 100 | 1012.8 |
| 20260904050054 | 66 | 180 | 5.0 | 12.0 | 0.00 | 0.00 | 0.00 | 100 | 1012.8 |
| 20260904045533 | 66 | 190 | 4.0 | 17.0 | 0.00 | 0.00 | 0.00 | 100 | 1012.7 |
| 20260904045033 | 66 | 243 | 4.0 | 17.0 | 0.00 | 0.00 | 0.00 | 100 | 1012.8 |
| 20260904044550 | 66 | 237 | 5.0 | 17.0 | 0.00 | 0.00 | 0.00 | 100 | 1012.7 |
| 20260904044031 | 66 | 286 | 3.0 | 17.0 | 0.00 | 0.00 | 0.00 | 100 | 1012.7 |
| 20260904043531 | 66 | 245 | 4.0 | 17.0 | 0.00 | 0.00 | 0.00 | 100 | 1012.9 |
| 20260904043046 | 66 | 246 | 3.0 | 17.0 | 0.00 | 0.00 | 0.00 | 100 | 1013.0 |
| 20260904042534 | 66 | 251 | 6.0 | 14.0 | 0.00 | 0.00 | 0.00 | 100 | 1013.1 |
| 20260904042032 | 66 | 174 | 4.0 | 12.0 | 0.00 | 0.00 | 0.00 | 100 | 1012.9 |
| 20260904041559 | 66 | 172 | 3.0 | 11.0 | 0.00 | 0.00 | 0.00 | 100 | 1013.0 |
| 20260904041032 | 66 | 217 | 2.0 | 17.0 | 0.00 | 0.00 | 0.00 | 100 | 1013.0 |
| 20260904040535 | 66 | 225 | 3.0 | 17.0 | 0.00 | 0.00 | 0.00 | 100 | 1013.0 |
| 20260904040055 | 66 | 117 | 4.0 | 23.0 | 0.00 | 0.00 | 0.00 | 100 | 1013.1 |
| 20260904035534 | 66 | 205 | 4.0 | 23.0 | 0.00 | 0.00 | 0.00 | 100 | 1013.2 |
| 20260904035031 | 66 | 223 | 4.0 | 17.0 | 0.00 | 0.00 | 0.00 | 100 | 1013.4 |
| 20260904034550 | 66 | 258 | 5.0 | 17.0 | 0.00 | 0.00 | 0.00 | 100 | 1013.6 |
| 20260904034032 | 66 | 225 | 4.0 | 13.0 | 0.00 | 0.00 | 0.00 | 100 | 1013.7 |
| 20260904033536 | 66 | 219 | 4.0 | 13.0 | 0.00 | 0.00 | 0.00 | 100 | 1013.7 |
| 20260904033048 | 66 | 219 | 4.0 | 12.0 | 0.00 | 0.00 | 0.00 | 100 | 1013.8 |
| 20260904032531 | 66 | 248 | 3.0 | 12.0 | 0.00 | 0.00 | 0.00 | 100 | 1013.9 |
| 20260904032032 | 66 | 174 | 3.0 | 12.0 | 0.00 | 0.00 | 0.00 | 100 | 1014.0 |
| 20260904031603 | 66 | 254 | 4.0 | 15.0 | 0.00 | 0.00 | 0.00 | 100 | 1014.2 |
| 20260904031034 | 66 | 197 | 5.0 | 15.0 | 0.00 | 0.00 | 0.00 | 100 | 1014.1 |
| 20260904030533 | 66 | 227 | 4.0 | 14.0 | 0.00 | 0.00 | 0.00 | 100 | 1014.2 |
| 20260904030052 | 66 | 171 | 4.0 | 14.0 | 0.00 | 0.00 | 0.00 | 100 | 1014.2 |
| 20260904025532 | 66 | 240 | 4.0 | 17.0 | 0.00 | 0.00 | 0.00 | 100 | 1014.2 |
| 20260904025032 | 66 | 0 | 4.0 | 17.0 | 0.00 | 0.00 | 0.00 | 100 | 1014.1 |
| 20260904024557 | 66 | 234 | 4.0 | 17.0 | 0.00 | 0.00 | 0.00 | 100 | 1014.2 |
| 20260904024033 | 66 | 210 | 4.0 | 13.0 | 0.00 | 0.00 | 0.00 | 100 | 1014.1 |
| 20260904023533 | 66 | 298 | 2.0 | 12.0 | 0.00 | 0.00 | 0.00 | 100 | 1014.1 |
| 20260904023048 | 66 | 200 | 2.0 | 13.0 | 0.00 | 0.00 | 0.00 | 100 | 1014.1 |
| 20260904022532 | 66 | 172 | 3.0 | 14.0 | 0.00 | 0.00 | 0.00 | 100 | 1014.2 |
| 20260904022033 | 66 | 202 | 3.0 | 14.0 | 0.00 | 0.00 | 0.00 | 100 | 1014.2 |
| 20260904021547 | 66 | 227 | 4.0 | 14.0 | 0.00 | 0.00 | 0.00 | 100 | 1014.3 |
| 20260904021032 | 66 | 257 | 3.0 | 12.0 | 0.00 | 0.00 | 0.00 | 100 | 1014.5 |
| 20260904020532 | 66 | 235 | 4.0 | 20.0 | 0.00 | 0.00 | 0.00 | 100 | 1014.6 |
| 20260904020100 | 66 | 195 | 3.0 | 20.0 | 0.00 | 0.00 | 0.00 | 100 | 1014.8 |
| 20260904015532 | 66 | 212 | 3.0 | 15.0 | 0.00 | 0.00 | 0.00 | 100 | 1014.7 |
| 20260904015037 | 66 | 231 | 4.0 | 15.0 | 0.00 | 0.00 | 0.00 | 100 | 1015.0 |
| 20260904014618 | 66 | 245 | 2.0 | 9.0 | 0.00 | 0.00 | 0.00 | 100 | 1014.9 |
| 20260904014032 | 66 | 305 | 2.0 | 16.0 | 0.00 | 0.00 | 0.00 | 100 | 1015.0 |
| 20260904013533 | 66 | 255 | 4.0 | 16.0 | 0.00 | 0.00 | 0.00 | 100 | 1015.2 |
| 20260904013103 | 67 | 231 | 2.0 | 13.0 | 0.00 | 0.00 | 0.00 | 100 | 1015.3 |
| 20260904012532 | 67 | 231 | 3.0 | 13.0 | 0.00 | 0.00 | 0.00 | 100 | 1015.2 |
| 20260904012032 | 66 | 275 | 4.0 | 13.0 | 0.00 | 0.00 | 0.00 | 100 | 1015.3 |
| 20260904011555 | 66 | 247 | 2.0 | 12.0 | 0.00 | 0.00 | 0.00 | 100 | 1015.3 |
| 20260904011033 | 66 | 222 | 3.0 | 12.0 | 0.00 | 0.00 | 0.00 | 100 | 1015.4 |
| 20260904010532 | 66 | 233 | 3.0 | 11.0 | 0.00 | 0.00 | 0.00 | 100 | 1015.4 |
| 20260904010110 | 66 | 258 | 2.0 | 10.0 | 0.00 | 0.00 | 0.00 | 100 | 1015.6 |
| 20260904005533 | 66 | 242 | 2.0 | 11.0 | 0.00 | 0.00 | 0.00 | 100 | 1015.5 |
| 20260904005033 | 66 | 257 | 3.0 | 12.0 | 0.00 | 0.00 | 0.00 | 100 | 1015.6 |
| 20260904004547 | 66 | 229 | 3.0 | 12.0 | 0.00 | 0.00 | 0.00 | 100 | 1015.7 |
| 20260904004034 | 66 | 225 | 2.0 | 10.0 | 0.00 | 0.00 | 0.00 | 100 | 1015.9 |
| 20260904003531 | 66 | 236 | 2.0 | 10.0 | 0.00 | 0.00 | 0.00 | 100 | 1015.9 |
| 20260904003101 | 66 | 246 | 2.0 | 10.0 | 0.00 | 0.00 | 0.00 | 100 | 1015.9 |
| 20260904002532 | 66 | 200 | 1.0 | 11.0 | 0.00 | 0.00 | 0.00 | 100 | 1015.9 |
| 20260904002032 | 66 | 281 | 0.0 | 11.0 | 0.00 | 0.00 | 0.00 | 100 | 1016.2 |
| 20260904001550 | 66 | 260 | 2.0 | 11.0 | 0.00 | 0.00 | 0.00 | 100 | 1016.2 |
| 20260904001034 | 66 | 292 | 0.0 | 10.0 | 0.00 | 0.00 | 0.00 | 100 | 1016.3 |
| 20260904000531 | 66 | 163 | 2.0 | 7.0 | 0.00 | 0.00 | 0.00 | 100 | 1016.4 |
| 20260903235535 | 65 | 0 | 1.0 | 8.0 | 0.00 | 0.00 | 0.00 | 100 | 1016.6 |
| 20260903235033 | 65 | 227 | 2.0 | 9.0 | 0.00 | 0.00 | 0.00 | 100 | 1016.5 |
| 20260903234548 | 65 | 0 | 0.0 | 9.0 | 0.00 | 0.00 | 0.00 | 100 | 1016.5 |
| 20260903234032 | 65 | 189 | 2.0 | 10.0 | 0.00 | 0.00 | 0.00 | 100 | 1016.4 |
| 20260903233531 | 65 | 0 | 2.0 | 11.0 | 0.00 | 0.00 | 0.00 | 100 | 1016.5 |
| 20260903233044 | 65 | 0 | 3.0 | 11.0 | 0.00 | 0.00 | 0.00 | 100 | 1016.4 |
| 20260903232532 | 65 | 198 | 1.0 | 7.0 | 0.00 | 0.00 | 0.00 | 100 | 1016.5 |
| 20260903232034 | 65 | 240 | 2.0 | 7.0 | 0.00 | 0.00 | 0.00 | 100 | 1016.6 |
| 20260903231553 | 65 | 266 | 1.0 | 8.0 | 0.00 | 0.00 | 0.00 | 100 | 1016.5 |
| 20260903231031 | 65 | 221 | 0.0 | 8.0 | 0.00 | 0.00 | 0.00 | 100 | 1016.5 |
| 20260903230531 | 65 | 252 | 2.0 | 8.0 | 0.00 | 0.00 | 0.00 | 100 | 1016.6 |
| 20260903230057 | 65 | 190 | 2.0 | 9.0 | 0.00 | 0.00 | 0.00 | 100 | 1016.6 |
| 20260903225537 | 65 | 225 | 2.0 | 9.0 | 0.00 | 0.00 | 0.00 | 100 | 1016.8 |
| 20260903225030 | 65 | 249 | 2.0 | 9.0 | 0.00 | 0.00 | 0.00 | 100 | 1016.8 |
| 20260903224544 | 66 | 279 | 1.0 | 8.0 | 0.00 | 0.00 | 0.00 | 100 | 1016.9 |
| 20260903224032 | 66 | 243 | 0.0 | 9.0 | 0.00 | 0.00 | 0.00 | 100 | 1017.0 |
| 20260903223532 | 66 | 153 | 2.0 | 9.0 | 0.00 | 0.00 | 0.00 | 100 | 1017.1 |
| 20260903223104 | 66 | 259 | 2.0 | 9.0 | 0.00 | 0.00 | 0.00 | 100 | 1017.0 |
| 20260903222531 | 66 | 215 | 2.0 | 9.0 | 0.00 | 0.00 | 0.00 | 100 | 1017.1 |
| 20260903222034 | 66 | 263 | 2.0 | 9.0 | 0.00 | 0.00 | 0.00 | 100 | 1017.1 |
| 20260903221552 | 66 | 239 | 3.0 | 10.0 | 0.00 | 0.00 | 0.00 | 100 | 1017.1 |
| 20260903221032 | 66 | 0 | 3.0 | 10.0 | 0.00 | 0.00 | 0.00 | 100 | 1017.2 |
| 20260903220534 | 66 | 210 | 3.0 | 13.0 | 0.00 | 0.00 | 0.00 | 100 | 1017.3 |
| 20260903220046 | 66 | 232 | 3.0 | 13.0 | 0.00 | 0.00 | 0.00 | 100 | 1017.2 |
| 20260903215532 | 67 | 0 | 3.0 | 10.0 | 0.00 | 0.00 | 0.00 | 100 | 1017.2 |
| 20260903215031 | 67 | 237 | 3.0 | 10.0 | 0.00 | 0.00 | 0.00 | 100 | 1017.4 |
| 20260903214553 | 67 | 0 | 4.0 | 10.0 | 0.00 | 0.00 | 0.00 | 100 | 1017.3 |
| 20260903214032 | 67 | 247 | 3.0 | 9.0 | 0.00 | 0.00 | 0.00 | 100 | 1017.5 |
| 20260903213532 | 67 | 224 | 3.0 | 9.0 | 0.00 | 0.00 | 0.00 | 100 | 1017.3 |
| 20260903213051 | 67 | 199 | 2.0 | 9.0 | 0.00 | 0.00 | 0.00 | 100 | 1017.5 |
| 20260903212532 | 67 | 257 | 2.0 | 9.0 | 0.00 | 0.00 | 0.00 | 100 | 1017.7 |
| 20260903212031 | 67 | 206 | 3.0 | 9.0 | 0.00 | 0.00 | 0.00 | 100 | 1017.7 |
| 20260903211604 | 67 | 227 | 3.0 | 12.0 | 0.00 | 0.00 | 0.00 | 100 | 1017.7 |
| 20260903211033 | 67 | 214 | 3.0 | 12.0 | 0.00 | 0.00 | 0.00 | 100 | 1017.8 |
| 20260903210532 | 67 | 171 | 2.0 | 14.0 | 0.00 | 0.00 | 0.00 | 100 | 1017.7 |
| 20260903210057 | 67 | 281 | 3.0 | 14.0 | 0.00 | 0.00 | 0.00 | 100 | 1017.7 |
| 20260903205536 | 67 | 221 | 3.0 | 14.0 | 0.00 | 0.00 | 0.00 | 100 | 1017.7 |
| 20260903205031 | 67 | 219 | 2.0 | 9.0 | 0.00 | 0.00 | 0.00 | 100 | 1017.5 |
| 20260903204555 | 67 | 253 | 1.0 | 12.0 | 0.00 | 0.00 | 0.00 | 100 | 1017.6 |
| 20260903204036 | 67 | 254 | 2.0 | 12.0 | 0.00 | 0.00 | 0.00 | 100 | 1017.5 |
| 20260903203533 | 67 | 229 | 1.0 | 10.0 | 0.00 | 0.00 | 0.00 | 100 | 1017.4 |
| 20260903203053 | 67 | 185 | 2.0 | 14.0 | 0.00 | 0.00 | 0.00 | 100 | 1017.4 |
| 20260903202532 | 67 | 177 | 3.0 | 14.0 | 0.00 | 0.00 | 0.00 | 100 | 1017.5 |
| 20260903202033 | 67 | 206 | 2.0 | 11.0 | 0.00 | 0.00 | 0.00 | 100 | 1017.6 |
| 20260903201551 | 67 | 250 | 3.0 | 11.0 | 0.00 | 0.00 | 0.00 | 100 | 1017.7 |
| 20260903201032 | 67 | 275 | 1.0 | 9.0 | 0.00 | 0.00 | 0.00 | 100 | 1017.7 |
| 20260903200532 | 68 | 300 | 1.0 | 9.0 | 0.00 | 0.00 | 0.00 | 100 | 1017.8 |
| 20260903200046 | 67 | 198 | 1.0 | 9.0 | 0.00 | 0.00 | 0.00 | 100 | 1017.8 |
| 20260903195534 | 68 | 247 | 2.0 | 7.0 | 0.00 | 0.00 | 0.00 | 100 | 1017.8 |
| 20260903195034 | 68 | 255 | 0.0 | 8.0 | 0.00 | 0.00 | 0.00 | 100 | 1017.9 |
| 20260903194545 | 68 | 238 | 2.0 | 8.0 | 0.00 | 0.00 | 0.00 | 100 | 1017.8 |
| 20260903194033 | 68 | 0 | 1.0 | 8.0 | 0.00 | 0.00 | 0.00 | 100 | 1017.9 |
| 20260903193532 | 68 | 0 | 2.0 | 8.0 | 0.00 | 0.00 | 0.00 | 100 | 1018.0 |
| 20260903193058 | 68 | 257 | 2.0 | 9.0 | 0.00 | 0.00 | 0.00 | 100 | 1018.1 |
| 20260903192534 | 68 | 0 | 3.0 | 11.0 | 0.00 | 0.00 | 0.00 | 100 | 1018.1 |
| 20260903192032 | 68 | 188 | 2.0 | 11.0 | 0.00 | 0.00 | 0.00 | 100 | 1018.1 |
| 20260903191552 | 68 | 0 | 2.0 | 11.0 | 0.00 | 0.00 | 0.00 | 100 | 1018.1 |
| 20260903191035 | 68 | 0 | 2.0 | 11.0 | 0.00 | 0.00 | 0.00 | 100 | 1018.1 |
| 20260903190535 | 68 | 254 | 1.0 | 10.0 | 0.00 | 0.00 | 0.00 | 100 | 1018.0 |
| 20260903190045 | 68 | 237 | 2.0 | 10.0 | 0.00 | 0.00 | 0.00 | 100 | 1018.1 |
| 20260903185533 | 68 | 186 | 1.0 | 13.0 | 0.00 | 0.01 | 0.00 | 100 | 1017.9 |
| 20260903185033 | 68 | 251 | 4.0 | 13.0 | 0.00 | 0.01 | 0.00 | 100 | 1017.9 |
| 20260903184558 | 68 | 235 | 1.0 | 13.0 | 0.00 | 0.01 | 0.00 | 100 | 1017.8 |
| 20260903184032 | 68 | 0 | 0.0 | 13.0 | 0.00 | 0.01 | 0.00 | 100 | 1017.7 |
| 20260903183532 | 68 | 186 | 3.0 | 13.0 | 0.00 | 0.01 | 0.00 | 100 | 1017.8 |
| 20260903183050 | 69 | 239 | 2.0 | 7.0 | 0.00 | 0.01 | 0.00 | 100 | 1017.9 |
| 20260903182532 | 69 | 0 | 1.0 | 9.0 | 0.00 | 0.01 | 0.00 | 100 | 1017.9 |
| 20260903182034 | 69 | 248 | 2.0 | 9.0 | 0.00 | 0.01 | 0.00 | 100 | 1018.0 |
| 20260903181545 | 69 | 245 | 1.0 | 10.0 | 0.00 | 0.01 | 0.00 | 100 | 1017.9 |
| 20260903181035 | 69 | 225 | 2.0 | 10.0 | 0.00 | 0.01 | 0.00 | 100 | 1017.8 |
| 20260903180535 | 70 | 0 | 1.0 | 6.0 | 0.00 | 0.01 | 0.00 | 100 | 1018.0 |
| 20260903180044 | 70 | 227 | 0.0 | 10.0 | 0.00 | 0.01 | 0.00 | 100 | 1018.0 |
| 20260903175533 | 70 | 0 | 1.0 | 10.0 | 0.00 | 0.02 | 0.00 | 100 | 1018.0 |
| 20260903175032 | 70 | 230 | 3.0 | 10.0 | 0.00 | 0.02 | 0.00 | 100 | 1018.0 |
| 20260903174551 | 70 | 182 | 3.0 | 10.0 | 0.00 | 0.02 | 0.00 | 100 | 1017.9 |
| 20260903174034 | 71 | 255 | 0.0 | 5.0 | 0.00 | 0.02 | 0.00 | 100 | 1018.0 |
| 20260903173537 | 71 | 0 | 0.0 | 9.0 | 0.00 | 0.02 | 0.00 | 100 | 1017.9 |
| 20260903173049 | 71 | 171 | 2.0 | 10.0 | 0.00 | 0.02 | 0.00 | 100 | 1017.8 |
| 20260903172533 | 71 | 0 | 1.0 | 13.0 | 0.00 | 0.02 | 0.00 | 100 | 1017.9 |
| 20260903172034 | 71 | 238 | 3.0 | 13.0 | 0.00 | 0.02 | 0.00 | 100 | 1018.0 |
| 20260903171554 | 72 | 261 | 3.0 | 12.0 | 0.00 | 0.02 | 0.00 | 100 | 1018.0 |
| 20260903171033 | 72 | 245 | 3.0 | 12.0 | 0.00 | 0.02 | 0.00 | 100 | 1018.0 |
| 20260903170532 | 72 | 0 | 0.0 | 9.0 | 0.00 | 0.02 | 0.00 | 100 | 1017.8 |
| 20260903170052 | 73 | 0 | 0.0 | 11.0 | 0.00 | 0.02 | 0.00 | 100 | 1017.9 |
| 20260903165537 | 72 | 0 | 2.0 | 11.0 | 0.00 | 0.02 | 0.00 | 100 | 1017.9 |
| 20260903165033 | 72 | 0 | 0.0 | 4.0 | 0.00 | 0.02 | 0.00 | 100 | 1018.0 |
| 20260903164558 | 72 | 280 | 0.0 | 7.0 | 0.00 | 0.02 | 0.00 | 100 | 1018.2 |
| 20260903164032 | 72 | 0 | 0.0 | 7.0 | 0.00 | 0.02 | 0.00 | 100 | 1018.1 |
| 20260903163531 | 72 | 256 | 1.0 | 7.0 | 0.00 | 0.02 | 0.00 | 100 | 1018.0 |
| 20260903163053 | 72 | 146 | 0.0 | 12.0 | 0.00 | 0.02 | 0.00 | 100 | 1018.0 |
| 20260903162531 | 72 | 0 | 2.0 | 12.0 | 0.00 | 0.02 | 0.00 | 100 | 1018.1 |
| 20260903162034 | 72 | 0 | 0.0 | 8.0 | 0.00 | 0.02 | 0.00 | 100 | 1018.2 |
| 20260903161553 | 72 | 263 | 0.0 | 6.0 | 0.00 | 0.02 | 0.00 | 100 | 1018.3 |
| 20260903161031 | 72 | 0 | 0.0 | 9.0 | 0.00 | 0.02 | 0.00 | 100 | 1018.3 |
| 20260903160532 | 72 | 225 | 2.0 | 10.0 | 0.00 | 0.02 | 0.00 | 100 | 1018.3 |
| 20260903160052 | 72 | 0 | 1.0 | 10.0 | 0.00 | 0.02 | 0.00 | 100 | 1018.3 |
| 20260903155532 | 72 | 233 | 1.0 | 8.0 | 0.00 | 0.03 | 0.00 | 100 | 1018.4 |
| 20260903155037 | 72 | 0 | 0.0 | 7.0 | 0.00 | 0.03 | 0.00 | 100 | 1018.4 |
| 20260903154551 | 72 | 262 | 0.0 | 7.0 | 0.00 | 0.03 | 0.00 | 100 | 1018.4 |
| 20260903154036 | 72 | 0 | 0.0 | 8.0 | 0.00 | 0.03 | 0.00 | 100 | 1018.4 |
| 20260903153534 | 72 | 0 | 0.0 | 8.0 | 0.00 | 0.03 | 0.00 | 100 | 1018.4 |
| 20260903153053 | 72 | 0 | 0.0 | 9.0 | 0.00 | 0.03 | 0.00 | 100 | 1018.5 |
| 20260903152539 | 72 | 0 | 1.0 | 9.0 | 0.00 | 0.03 | 0.00 | 100 | 1018.5 |
| 20260903152038 | 72 | 241 | 3.0 | 8.0 | 0.00 | 0.03 | 0.00 | 100 | 1018.7 |
| 20260903151556 | 73 | 0 | 1.0 | 11.0 | 0.00 | 0.03 | 0.00 | 100 | 1018.6 |
| 20260903151035 | 73 | 241 | 2.0 | 11.0 | 0.00 | 0.03 | 0.00 | 100 | 1018.6 |
| 20260903150536 | 73 | 248 | 2.0 | 11.0 | 0.00 | 0.03 | 0.00 | 100 | 1018.6 |
| 20260903150053 | 73 | 209 | 2.0 | 11.0 | 0.00 | 0.03 | 0.00 | 100 | 1018.6 |
| 20260903145533 | 74 | 228 | 4.0 | 11.0 | 0.00 | 0.03 | 0.00 | 100 | 1018.4 |
| 20260903145036 | 74 | 224 | 3.0 | 11.0 | 0.00 | 0.03 | 0.00 | 100 | 1018.6 |
| 20260903144600 | 74 | 0 | 0.0 | 8.0 | 0.00 | 0.03 | 0.00 | 100 | 1018.5 |
| 20260903144033 | 74 | 155 | 0.0 | 9.0 | 0.00 | 0.03 | 0.00 | 100 | 1018.5 |
| 20260903143532 | 74 | 0 | 3.0 | 11.0 | 0.00 | 0.03 | 0.00 | 100 | 1018.5 |
| 20260903143055 | 74 | 239 | 3.0 | 11.0 | 0.00 | 0.03 | 0.00 | 100 | 1018.5 |
| 20260903142537 | 74 | 209 | 1.0 | 11.0 | 0.00 | 0.03 | 0.00 | 100 | 1018.5 |
| 20260903142036 | 74 | 0 | 0.0 | 8.0 | 0.00 | 0.03 | 0.00 | 100 | 1018.6 |
| 20260903141555 | 74 | 0 | 0.0 | 8.0 | 0.00 | 0.03 | 0.00 | 100 | 1018.6 |
| 20260903141036 | 74 | 0 | 0.0 | 8.0 | 0.00 | 0.03 | 0.00 | 100 | 1018.6 |
| 20260903140536 | 73 | 234 | 2.0 | 7.0 | 0.00 | 0.03 | 0.00 | 100 | 1018.6 |
| 20260903140055 | 73 | 0 | 0.0 | 3.0 | 0.00 | 0.03 | 0.00 | 100 | 1018.8 |
| 20260903135535 | 73 | 0 | 0.0 | 5.0 | 0.00 | 0.03 | 0.00 | 100 | 1018.8 |
| 20260903135035 | 73 | 0 | 0.0 | 8.0 | 0.00 | 0.03 | 0.00 | 100 | 1018.6 |
| 20260903134601 | 74 | 196 | 0.0 | 10.0 | 0.00 | 0.03 | 0.00 | 100 | 1018.8 |
| 20260903134033 | 74 | 0 | 1.0 | 10.0 | 0.00 | 0.03 | 0.00 | 100 | 1018.9 |
| 20260903133538 | 74 | 0 | 2.0 | 10.0 | 0.00 | 0.03 | 0.00 | 100 | 1018.6 |
| 20260903133110 | 74 | 0 | 1.0 | 10.0 | 0.00 | 0.03 | 0.00 | 100 | 1018.7 |
| 20260903132536 | 74 | 0 | 1.0 | 7.0 | 0.00 | 0.03 | 0.00 | 100 | 1018.6 |
| 20260903132034 | 73 | 0 | 0.0 | 4.0 | 0.00 | 0.03 | 0.00 | 100 | 1018.9 |
| 20260903131555 | 73 | 222 | 0.0 | 10.0 | 0.00 | 0.03 | 0.00 | 100 | 1019.1 |
| 20260903131038 | 73 | 0 | 0.0 | 10.0 | 0.00 | 0.03 | 0.00 | 100 | 1019.2 |
| 20260903130536 | 72 | 0 | 1.0 | 10.0 | 0.00 | 0.03 | 0.00 | 100 | 1019.2 |
| 20260903130121 | 73 | 0 | 1.0 | 10.0 | 0.00 | 0.03 | 0.00 | 100 | 1019.3 |
| 20260903125539 | 72 | 0 | 1.0 | 10.0 | 0.00 | 0.03 | 0.00 | 100 | 1019.3 |
| 20260903125032 | 72 | 0 | 0.0 | 10.0 | 0.00 | 0.03 | 0.00 | 100 | 1019.3 |
| 20260903124606 | 72 | 0 | 0.0 | 7.0 | 0.00 | 0.03 | 0.00 | 100 | 1019.2 |
| 20260903124036 | 73 | 0 | 2.0 | 11.0 | 0.00 | 0.03 | 0.00 | 100 | 1019.3 |
| 20260903123629 | 73 | 0 | 0.0 | 11.0 | 0.00 | 0.03 | 0.00 | 100 | 1019.2 |
| 20260903123055 | 73 | 249 | 3.0 | 14.0 | 0.00 | 0.03 | 0.00 | 100 | 1019.1 |
| 20260903122531 | 73 | 178 | 3.0 | 14.0 | 0.00 | 0.03 | 0.00 | 100 | 1019.1 |
| 20260903122032 | 73 | 0 | 1.0 | 9.0 | 0.00 | 0.03 | 0.00 | 100 | 1019.2 |
| 20260903121550 | 73 | 147 | 0.0 | 8.0 | 0.00 | 0.03 | 0.00 | 100 | 1019.1 |
| 20260903121031 | 73 | 0 | 0.0 | 9.0 | 0.00 | 0.03 | 0.00 | 100 | 1019.0 |
| 20260903120532 | 72 | 258 | 1.0 | 9.0 | 0.00 | 0.03 | 0.00 | 100 | 1019.1 |
| 20260903120047 | 72 | 185 | 1.0 | 8.0 | 0.00 | 0.03 | 0.00 | 100 | 1019.1 |
| 20260903115532 | 72 | 0 | 1.0 | 7.0 | 0.00 | 0.03 | 0.00 | 100 | 1019.1 |
| 20260903115032 | 72 | 0 | 0.0 | 7.0 | 0.00 | 0.03 | 0.00 | 100 | 1019.1 |
| 20260903114544 | 72 | 0 | 0.0 | 9.0 | 0.00 | 0.03 | 0.00 | 100 | 1019.1 |
| 20260903114031 | 71 | 0 | 0.0 | 9.0 | 0.00 | 0.03 | 0.00 | 100 | 1019.1 |
| 20260903113533 | 71 | 0 | 0.0 | 8.0 | 0.00 | 0.03 | 0.00 | 100 | 1019.2 |
| 20260903113045 | 71 | 0 | 1.0 | 8.0 | 0.00 | 0.03 | 0.00 | 100 | 1019.3 |
| 20260903112532 | 71 | 0 | 2.0 | 8.0 | 0.00 | 0.03 | 0.00 | 100 | 1019.3 |
| 20260903112032 | 71 | 262 | 0.0 | 8.0 | 0.00 | 0.03 | 0.00 | 100 | 1019.2 |
| 20260903111554 | 71 | 0 | 0.0 | 4.0 | 0.00 | 0.03 | 0.00 | 100 | 1019.2 |
| 20260903111031 | 71 | 223 | 1.0 | 4.0 | 0.00 | 0.03 | 0.00 | 100 | 1019.3 |
| 20260903110531 | 70 | 0 | 0.0 | 7.0 | 0.00 | 0.03 | 0.00 | 100 | 1019.3 |
| 20260903110050 | 70 | 179 | 0.0 | 7.0 | 0.00 | 0.03 | 0.00 | 100 | 1019.4 |
| 20260903105531 | 70 | 0 | 0.0 | 6.0 | 0.00 | 0.03 | 0.00 | 100 | 1019.4 |
| 20260903105034 | 70 | 243 | 1.0 | 9.0 | 0.00 | 0.03 | 0.00 | 100 | 1019.4 |
| 20260903104545 | 70 | 0 | 0.0 | 9.0 | 0.00 | 0.03 | 0.00 | 100 | 1019.3 |
| 20260903104032 | 70 | 257 | 1.0 | 9.0 | 0.00 | 0.03 | 0.00 | 100 | 1019.2 |
| 20260903103534 | 70 | 182 | 3.0 | 9.0 | 0.00 | 0.03 | 0.00 | 100 | 1019.1 |
| 20260903103053 | 70 | 237 | 2.0 | 9.0 | 0.00 | 0.03 | 0.00 | 100 | 1019.2 |
| 20260903102531 | 70 | 190 | 1.0 | 9.0 | 0.00 | 0.03 | 0.00 | 100 | 1019.2 |
| 20260903102032 | 69 | 129 | 2.0 | 8.0 | 0.00 | 0.03 | 0.00 | 100 | 1019.2 |
| 20260903101553 | 69 | 240 | 1.0 | 9.0 | 0.00 | 0.03 | 0.00 | 100 | 1019.3 |
| 20260903101032 | 69 | 223 | 2.0 | 9.0 | 0.00 | 0.03 | 0.00 | 100 | 1019.4 |
| 20260903100532 | 69 | 251 | 0.0 | 9.0 | 0.00 | 0.03 | 0.00 | 100 | 1019.5 |
| 20260903100046 | 69 | 0 | 2.0 | 9.0 | 0.00 | 0.03 | 0.00 | 100 | 1019.5 |
| 20260903095531 | 69 | 264 | 2.0 | 8.0 | 0.00 | 0.03 | 0.00 | 100 | 1019.5 |
| 20260903095035 | 69 | 254 | 2.0 | 9.0 | 0.00 | 0.03 | 0.00 | 100 | 1019.5 |
| 20260903094553 | 68 | 249 | 3.0 | 11.0 | 0.00 | 0.03 | 0.00 | 100 | 1019.5 |
| 20260903094032 | 68 | 0 | 3.0 | 11.0 | 0.00 | 0.03 | 0.00 | 100 | 1019.6 |
| 20260903093532 | 68 | 219 | 2.0 | 12.0 | 0.00 | 0.03 | 0.00 | 100 | 1019.6 |
| 20260903093056 | 68 | 141 | 4.0 | 12.0 | 0.00 | 0.03 | 0.00 | 100 | 1019.5 |
| 20260903092535 | 68 | 269 | 4.0 | 11.0 | 0.00 | 0.03 | 0.00 | 100 | 1019.5 |
| 20260903092032 | 68 | 306 | 3.0 | 13.0 | 0.00 | 0.03 | 0.00 | 100 | 1019.4 |
| 20260903091551 | 68 | 248 | 4.0 | 13.0 | 0.00 | 0.03 | 0.00 | 100 | 1019.4 |
| 20260903091037 | 68 | 230 | 2.0 | 11.0 | 0.00 | 0.03 | 0.00 | 100 | 1019.4 |
| 20260903090532 | 68 | 259 | 2.0 | 11.0 | 0.00 | 0.03 | 0.00 | 100 | 1019.3 |
| 20260903090057 | 68 | 205 | 3.0 | 9.0 | 0.00 | 0.03 | 0.00 | 100 | 1019.3 |
| 20260903085535 | 68 | 223 | 3.0 | 10.0 | 0.00 | 0.03 | 0.00 | 100 | 1019.1 |
| 20260903085035 | 67 | 207 | 2.0 | 11.0 | 0.00 | 0.03 | 0.00 | 100 | 1019.1 |
| 20260903084552 | 67 | 184 | 3.0 | 11.0 | 0.00 | 0.03 | 0.00 | 100 | 1019.2 |
| 20260903084035 | 67 | 175 | 3.0 | 11.0 | 0.00 | 0.03 | 0.00 | 100 | 1018.9 |
| 20260903083535 | 67 | 248 | 3.0 | 10.0 | 0.00 | 0.03 | 0.00 | 100 | 1018.8 |
| 20260903083059 | 67 | 226 | 3.0 | 10.0 | 0.00 | 0.03 | 0.00 | 100 | 1018.7 |
| 20260903082535 | 66 | 0 | 2.0 | 10.0 | 0.00 | 0.03 | 0.00 | 100 | 1018.7 |
| 20260903082035 | 66 | 224 | 2.0 | 12.0 | 0.00 | 0.03 | 0.00 | 100 | 1018.5 |
| 20260903081549 | 66 | 226 | 3.0 | 12.0 | 0.00 | 0.03 | 0.00 | 100 | 1018.6 |
| 20260903081031 | 66 | 212 | 3.0 | 8.0 | 0.00 | 0.03 | 0.00 | 100 | 1018.5 |
| 20260903080532 | 66 | 273 | 3.0 | 12.0 | 0.00 | 0.03 | 0.00 | 100 | 1018.3 |
| 20260903080056 | 65 | 240 | 3.0 | 12.0 | 0.00 | 0.03 | 0.00 | 100 | 1018.3 |
| 20260903075534 | 65 | 175 | 2.0 | 9.0 | 0.00 | 0.03 | 0.00 | 100 | 1018.3 |
| 20260903075035 | 65 | 230 | 3.0 | 9.0 | 0.00 | 0.03 | 0.00 | 100 | 1018.3 |
| 20260903074602 | 65 | 227 | 2.0 | 8.0 | 0.00 | 0.03 | 0.00 | 100 | 1018.1 |
| 20260903074035 | 65 | 269 | 1.0 | 8.0 | 0.00 | 0.03 | 0.00 | 100 | 1018.1 |